,,PA_Meas_PMT16A,,PR_Meas_QMR101_102,,RH_Meas_QMH101,,SR_Meas_QMS101,,TA_Meas_QMH101,,GenWind,,GenWind,
time,status,PA,status,PR,status,RH,status,SR,status,TA,status,DirAvg,status,SpdAvg,
2010-06-13, 00:00:04,VALID,917.715,VALID,0,VALID,91.2142,VALID,0,VALID,22.003,VALID,158,VALID,1.6375,
2010-06-13, 00:01:04,VALID,917.703,VALID,0,VALID,91.4581,VALID,0.107441,VALID,21.9818,VALID,166,VALID,0.936328,
2010-06-13, 00:02:04,VALID,917.692,VALID,0,VALID,91.8088,VALID,0,VALID,21.9428,VALID,166,VALID,1.03047,
2010-06-13, 00:03:04,VALID,917.702,VALID,0,VALID,92.2281,VALID,0,VALID,21.9444,VALID,166,VALID,0.973828,
2010-06-13, 00:04:04,VALID,917.687,VALID,0,VALID,92.6321,VALID,0.107441,VALID,21.9054,VALID,145,VALID,1.40391,
2010-06-13, 00:05:04,VALID,917.703,VALID,0,VALID,93.0285,VALID,0,VALID,21.8274,VALID,126,VALID,0.899609,
2010-06-13, 00:06:04,VALID,917.682,VALID,0,VALID,93.3945,VALID,0,VALID,21.7688,VALID,126,VALID,1.26094,
2010-06-13, 00:07:04,VALID,917.672,VALID,0,VALID,93.6537,VALID,0,VALID,21.7298,VALID,126,VALID,0.94375,
2010-06-13, 00:08:04,VALID,917.708,VALID,0,VALID,93.6994,VALID,0.107441,VALID,21.6891,VALID,126,VALID,1.12891,
2010-06-13, 00:09:04,VALID,917.699,VALID,0,VALID,93.7147,VALID,0,VALID,21.6891,VALID,126,VALID,1.1457,
2010-06-13, 00:10:04,VALID,917.69,VALID,0,VALID,93.7223,VALID,0,VALID,21.6696,VALID,126,VALID,1.36758,
2010-06-13, 00:11:04,VALID,917.702,VALID,0,VALID,93.6308,VALID,0,VALID,21.6696,VALID,126,VALID,0.975781,
2010-06-13, 00:12:04,VALID,917.683,VALID,0,VALID,93.3945,VALID,0,VALID,21.6696,VALID,126,VALID,1.30352,
2010-06-13, 00:13:04,VALID,917.69,VALID,0,VALID,93.1658,VALID,0,VALID,21.7103,VALID,159,VALID,1.22539,
2010-06-13, 00:14:04,VALID,917.643,VALID,0,VALID,93.0514,VALID,0.107441,VALID,21.7298,VALID,161,VALID,0.776172,
2010-06-13, 00:15:04,VALID,917.651,VALID,0,VALID,92.7693,VALID,0,VALID,21.7477,VALID,161,VALID,0.473828,
2010-06-13, 00:16:04,VALID,917.61,VALID,0,VALID,92.6474,VALID,0.107441,VALID,21.7883,VALID,161,VALID,0.462891,
2010-06-13, 00:17:04,VALID,917.609,VALID,0,VALID,91.9384,VALID,0,VALID,21.7867,VALID,161,VALID,0.930078,
2010-06-13, 00:18:04,VALID,917.633,VALID,0,VALID,91.6182,VALID,0,VALID,21.8062,VALID,162,VALID,1.22773,
2010-06-13, 00:19:04,VALID,917.636,VALID,0,VALID,91.6106,VALID,0.107441,VALID,21.8469,VALID,162,VALID,0.460156,
2010-06-13, 00:20:04,VALID,917.635,VALID,0,VALID,91.5191,VALID,0.107441,VALID,21.8452,VALID,162,VALID,0.533594,
2010-06-13, 00:21:04,VALID,917.634,VALID,0,VALID,91.5267,VALID,0,VALID,21.8257,VALID,162,VALID,0.521484,
2010-06-13, 00:22:04,VALID,917.643,VALID,0,VALID,91.5267,VALID,0.107441,VALID,21.8257,VALID,162,VALID,0.920313,
2010-06-13, 00:23:04,VALID,917.636,VALID,0,VALID,91.5648,VALID,0.107441,VALID,21.8062,VALID,162,VALID,0.583594,
2010-06-13, 00:24:04,VALID,917.619,VALID,0,VALID,91.3971,VALID,0.107441,VALID,21.8257,VALID,162,VALID,0.662891,
2010-06-13, 00:25:04,VALID,917.61,VALID,0,VALID,91.3057,VALID,0.107441,VALID,21.8859,VALID,162,VALID,0.860547,
2010-06-13, 00:26:04,VALID,917.585,VALID,0,VALID,91.1151,VALID,0.107441,VALID,21.9249,VALID,162,VALID,0.852734,
2010-06-13, 00:27:04,VALID,917.595,VALID,0,VALID,90.9397,VALID,0.107441,VALID,21.9038,VALID,162,VALID,0.928906,
2010-06-13, 00:28:04,VALID,917.565,VALID,0,VALID,90.9016,VALID,0.107441,VALID,21.9249,VALID,162,VALID,0.775781,
2010-06-13, 00:29:04,VALID,917.578,VALID,0,VALID,91.0541,VALID,0.107441,VALID,21.9233,VALID,162,VALID,0.549219,
2010-06-13, 00:30:04,VALID,917.557,VALID,0,VALID,91.0922,VALID,0,VALID,21.8842,VALID,162,VALID,0.798437,
2010-06-13, 00:31:04,VALID,917.539,VALID,0,VALID,90.9931,VALID,0,VALID,21.9054,VALID,162,VALID,0.721094,
2010-06-13, 00:32:04,VALID,917.524,VALID,0,VALID,90.8178,VALID,0,VALID,21.9038,VALID,162,VALID,0.512891,
2010-06-13, 00:33:04,VALID,917.507,VALID,0,VALID,91.0388,VALID,0.107441,VALID,21.964,VALID,162,VALID,0.516016,
2010-06-13, 00:34:04,VALID,917.501,VALID,0,VALID,90.65,VALID,0,VALID,21.964,VALID,162,VALID,0.451562,
2010-06-13, 00:35:04,VALID,917.495,VALID,0,VALID,90.7263,VALID,0,VALID,22.003,VALID,162,VALID,0.75,
2010-06-13, 00:36:04,VALID,917.472,VALID,0,VALID,90.9169,VALID,0,VALID,22.003,VALID,162,VALID,0.2625,
2010-06-13, 00:37:04,VALID,917.483,VALID,0,VALID,90.6348,VALID,0.107441,VALID,22.003,VALID,162,VALID,0.649609,
2010-06-13, 00:38:04,VALID,917.495,VALID,0,VALID,90.7796,VALID,0,VALID,22.003,VALID,162,VALID,0.211328,
2010-06-13, 00:39:04,VALID,917.512,VALID,0,VALID,90.8101,VALID,0,VALID,22.0225,VALID,162,VALID,0.309375,
2010-06-13, 00:40:04,VALID,917.49,VALID,0,VALID,90.5204,VALID,0.107441,VALID,21.9818,VALID,162,VALID,0.571094,
2010-06-13, 00:41:04,VALID,917.483,VALID,0,VALID,90.6577,VALID,0,VALID,21.9428,VALID,162,VALID,0.226172,
2010-06-13, 00:42:04,VALID,917.504,VALID,0,VALID,90.8025,VALID,0,VALID,21.9233,VALID,162,VALID,0.205859,
2010-06-13, 00:43:04,VALID,917.486,VALID,0,VALID,90.9702,VALID,0,VALID,21.9233,VALID,162,VALID,1.3457,
2010-06-13, 00:44:04,VALID,917.485,VALID,0,VALID,91.2599,VALID,0,VALID,21.8647,VALID,20,VALID,1.08047,
2010-06-13, 00:45:04,VALID,917.486,VALID,0,VALID,91.7402,VALID,0,VALID,21.8079,VALID,20,VALID,0.9125,
2010-06-13, 00:46:04,VALID,917.461,VALID,0,VALID,92.0832,VALID,0,VALID,21.7493,VALID,20,VALID,0.932813,
2010-06-13, 00:47:04,VALID,917.448,VALID,0,VALID,92.4644,VALID,0,VALID,21.6908,VALID,20,VALID,0.754297,
2010-06-13, 00:48:04,VALID,917.439,VALID,0,VALID,92.7541,VALID,0,VALID,21.6306,VALID,20,VALID,1.27656,
2010-06-13, 00:49:04,VALID,917.424,VALID,0,VALID,93.0057,VALID,0,VALID,21.5721,VALID,20,VALID,0.971094,
2010-06-13, 00:50:04,VALID,917.436,VALID,0,VALID,93.2572,VALID,0,VALID,21.5737,VALID,20,VALID,0.866016,
2010-06-13, 00:51:04,VALID,917.411,VALID,0,VALID,93.3335,VALID,0,VALID,21.5526,VALID,20,VALID,0.597656,
2010-06-13, 00:52:04,VALID,917.421,VALID,0,VALID,93.4936,VALID,0,VALID,21.5331,VALID,20,VALID,0.508594,
2010-06-13, 00:53:04,VALID,917.398,VALID,0,VALID,93.5851,VALID,0,VALID,21.5542,VALID,20,VALID,0.609375,
2010-06-13, 00:54:04,VALID,917.416,VALID,0,VALID,93.4859,VALID,0,VALID,21.5526,VALID,20,VALID,0.530078,
2010-06-13, 00:55:04,VALID,917.395,VALID,0,VALID,93.4631,VALID,0.107441,VALID,21.5331,VALID,20,VALID,0.663672,
2010-06-13, 00:56:04,VALID,917.38,VALID,0,VALID,93.5164,VALID,0,VALID,21.5152,VALID,20,VALID,0.438281,
2010-06-13, 00:57:04,VALID,917.369,VALID,0,VALID,93.5317,VALID,0,VALID,21.4941,VALID,20,VALID,0.625391,
2010-06-13, 00:58:04,VALID,917.365,VALID,0,VALID,93.5927,VALID,0,VALID,21.455,VALID,20,VALID,0.537891,
2010-06-13, 00:59:04,VALID,917.368,VALID,0,VALID,93.7985,VALID,0.107441,VALID,21.416,VALID,20,VALID,0.875,
2010-06-13, 01:00:04,VALID,917.343,VALID,0,VALID,93.9586,VALID,0,VALID,21.377,VALID,20,VALID,0.942187,
2010-06-13, 01:01:04,VALID,917.31,VALID,0,VALID,94.0577,VALID,0,VALID,21.3575,VALID,20,VALID,1.12344,
2010-06-13, 01:02:04,VALID,917.295,VALID,0,VALID,93.9891,VALID,0,VALID,21.377,VALID,20,VALID,0.998438,
2010-06-13, 01:03:04,VALID,917.289,VALID,0,VALID,93.8671,VALID,0,VALID,21.416,VALID,20,VALID,1.02148,
2010-06-13, 01:04:04,VALID,917.272,VALID,0,VALID,93.7223,VALID,0,VALID,21.4355,VALID,21,VALID,0.985937,
2010-06-13, 01:05:04,VALID,917.263,VALID,0,VALID,93.707,VALID,0,VALID,21.4567,VALID,111,VALID,1.11445,
2010-06-13, 01:06:04,VALID,917.246,VALID,0,VALID,93.8519,VALID,0,VALID,21.4567,VALID,147,VALID,1.10273,
2010-06-13, 01:07:04,VALID,917.258,VALID,0,VALID,93.9357,VALID,0,VALID,21.4762,VALID,145,VALID,0.667578,
2010-06-13, 01:08:04,VALID,917.257,VALID,0,VALID,93.7528,VALID,0.107441,VALID,21.4746,VALID,132,VALID,1.10195,
2010-06-13, 01:09:04,VALID,917.19,VALID,0,VALID,93.6842,VALID,0,VALID,21.4355,VALID,118,VALID,1.37852,
2010-06-13, 01:10:04,VALID,917.189,VALID,0,VALID,93.768,VALID,0,VALID,21.4355,VALID,118,VALID,1.08281,
2010-06-13, 01:11:04,VALID,917.156,VALID,0,VALID,93.8747,VALID,0,VALID,21.4567,VALID,118,VALID,1.05664,
2010-06-13, 01:12:04,VALID,917.13,VALID,0,VALID,93.9891,VALID,0,VALID,21.4372,VALID,118,VALID,0.980078,
2010-06-13, 01:13:04,VALID,917.081,VALID,0,VALID,93.9662,VALID,0,VALID,21.4355,VALID,118,VALID,0.891797,
2010-06-13, 01:14:04,VALID,917.033,VALID,0,VALID,93.9586,VALID,0,VALID,21.4567,VALID,142,VALID,1.07773,
2010-06-13, 01:15:04,VALID,917.017,VALID,0,VALID,93.9129,VALID,0.107441,VALID,21.4567,VALID,145,VALID,0.8125,
2010-06-13, 01:16:04,VALID,917.036,VALID,0,VALID,94.0043,VALID,0,VALID,21.416,VALID,140,VALID,1.40703,
2010-06-13, 01:17:04,VALID,916.955,VALID,0,VALID,94.2178,VALID,0,VALID,21.3965,VALID,133,VALID,0.992969,
2010-06-13, 01:18:04,VALID,916.942,VALID,0,VALID,94.3474,VALID,0,VALID,21.3786,VALID,133,VALID,1.13633,
2010-06-13, 01:19:04,VALID,916.919,VALID,0,VALID,94.3779,VALID,0,VALID,21.3364,VALID,133,VALID,1.16055,
2010-06-13, 01:20:04,VALID,916.893,VALID,0,VALID,94.3931,VALID,0,VALID,21.3575,VALID,133,VALID,1.23398,
2010-06-13, 01:21:04,VALID,916.877,VALID,0,VALID,94.3321,VALID,0,VALID,21.3396,VALID,133,VALID,0.670703,
2010-06-13, 01:22:04,VALID,916.864,VALID,0,VALID,94.233,VALID,0,VALID,21.3591,VALID,132,VALID,0.794531,
2010-06-13, 01:23:04,VALID,916.886,VALID,0,VALID,94.1949,VALID,0,VALID,21.338,VALID,132,VALID,0.698438,
2010-06-13, 01:24:04,VALID,916.837,VALID,0,VALID,94.1492,VALID,0,VALID,21.3575,VALID,132,VALID,0.653906,
2010-06-13, 01:25:04,VALID,916.858,VALID,0,VALID,94.073,VALID,0,VALID,21.3981,VALID,132,VALID,0.70625,
2010-06-13, 01:26:04,VALID,916.827,VALID,0,VALID,94.0425,VALID,0,VALID,21.3981,VALID,132,VALID,0.380859,
2010-06-13, 01:27:04,VALID,916.803,VALID,0,VALID,93.7909,VALID,0,VALID,21.4177,VALID,132,VALID,0.652344,
2010-06-13, 01:28:04,VALID,916.783,VALID,0,VALID,93.4707,VALID,0,VALID,21.4567,VALID,132,VALID,0.720312,
2010-06-13, 01:29:04,VALID,916.789,VALID,0,VALID,93.2572,VALID,0,VALID,21.4746,VALID,132,VALID,0.342187,
2010-06-13, 01:30:04,VALID,916.794,VALID,0,VALID,93.2954,VALID,0,VALID,21.5347,VALID,132,VALID,0.122266,
2010-06-13, 01:31:04,VALID,916.76,VALID,0,VALID,93.2039,VALID,0.107441,VALID,21.5347,VALID,132,VALID,0.282813,
2010-06-13, 01:32:04,VALID,916.762,VALID,0,VALID,93.1353,VALID,0,VALID,21.5136,VALID,132,VALID,0.417188,
2010-06-13, 01:33:04,VALID,916.743,VALID,0,VALID,93.0362,VALID,0,VALID,21.4957,VALID,132,VALID,0.657812,
2010-06-13, 01:34:04,VALID,916.749,VALID,0,VALID,93.0514,VALID,0,VALID,21.4957,VALID,132,VALID,0.983203,
2010-06-13, 01:35:04,VALID,916.715,VALID,0,VALID,93.2115,VALID,0,VALID,21.455,VALID,132,VALID,0.659375,
2010-06-13, 01:36:04,VALID,916.711,VALID,0,VALID,93.2344,VALID,0,VALID,21.4372,VALID,132,VALID,0.857422,
2010-06-13, 01:37:04,VALID,916.697,VALID,0,VALID,93.1734,VALID,0,VALID,21.416,VALID,132,VALID,0.570313,
2010-06-13, 01:38:04,VALID,916.679,VALID,0,VALID,93.0667,VALID,0,VALID,21.4567,VALID,132,VALID,0.682813,
2010-06-13, 01:39:04,VALID,916.68,VALID,0,VALID,92.8989,VALID,0,VALID,21.4355,VALID,132,VALID,0.746875,
2010-06-13, 01:40:04,VALID,916.693,VALID,0,VALID,92.7922,VALID,0.107441,VALID,21.4567,VALID,132,VALID,0.825781,
2010-06-13, 01:41:04,VALID,916.691,VALID,0,VALID,92.7998,VALID,0,VALID,21.4762,VALID,132,VALID,0.805469,
2010-06-13, 01:42:04,VALID,916.691,VALID,0,VALID,92.8608,VALID,0.107441,VALID,21.4567,VALID,132,VALID,0.993359,
2010-06-13, 01:43:04,VALID,916.701,VALID,0,VALID,93.1048,VALID,0,VALID,21.4177,VALID,132,VALID,1.33555,
2010-06-13, 01:44:04,VALID,916.734,VALID,0,VALID,93.242,VALID,0,VALID,21.338,VALID,132,VALID,1.125,
2010-06-13, 01:45:04,VALID,916.729,VALID,0,VALID,93.303,VALID,0,VALID,21.3396,VALID,131,VALID,0.959375,
2010-06-13, 01:46:04,VALID,916.699,VALID,0,VALID,93.3259,VALID,0.107441,VALID,21.3396,VALID,131,VALID,0.744141,
2010-06-13, 01:47:04,VALID,916.716,VALID,0,VALID,93.2801,VALID,0,VALID,21.3396,VALID,131,VALID,1.13867,
2010-06-13, 01:48:04,VALID,916.714,VALID,0,VALID,93.2344,VALID,0,VALID,21.3591,VALID,131,VALID,0.959375,
2010-06-13, 01:49:04,VALID,916.735,VALID,0,VALID,93.2725,VALID,0,VALID,21.3786,VALID,49,VALID,0.745703,
2010-06-13, 01:50:04,VALID,916.712,VALID,0,VALID,93.2801,VALID,0,VALID,21.3981,VALID,49,VALID,0.866016,
2010-06-13, 01:51:04,VALID,916.73,VALID,0,VALID,93.4936,VALID,0,VALID,21.3981,VALID,49,VALID,0.929297,
2010-06-13, 01:52:04,VALID,916.731,VALID,0,VALID,93.5698,VALID,0,VALID,21.3965,VALID,49,VALID,0.8125,
2010-06-13, 01:53:04,VALID,916.753,VALID,0,VALID,93.6155,VALID,0,VALID,21.4177,VALID,49,VALID,0.613281,
2010-06-13, 01:54:04,VALID,916.697,VALID,0,VALID,93.6613,VALID,0.107441,VALID,21.377,VALID,49,VALID,0.751953,
2010-06-13, 01:55:04,VALID,916.691,VALID,0,VALID,93.7299,VALID,0,VALID,21.3981,VALID,49,VALID,0.611328,
2010-06-13, 01:56:04,VALID,916.689,VALID,0,VALID,93.8443,VALID,0,VALID,21.3591,VALID,49,VALID,0.895312,
2010-06-13, 01:57:04,VALID,916.689,VALID,0,VALID,93.9281,VALID,0,VALID,21.3591,VALID,49,VALID,0.605078,
2010-06-13, 01:58:04,VALID,916.676,VALID,0,VALID,93.9129,VALID,0,VALID,21.3591,VALID,49,VALID,0.395312,
2010-06-13, 01:59:04,VALID,916.659,VALID,0,VALID,93.9281,VALID,0,VALID,21.3185,VALID,49,VALID,0.399609,
2010-06-13, 02:00:04,VALID,916.673,VALID,0,VALID,93.8747,VALID,0,VALID,21.3185,VALID,49,VALID,0.21875,
2010-06-13, 02:01:04,VALID,916.697,VALID,0,VALID,93.7909,VALID,0,VALID,21.3396,VALID,49,VALID,0.487891,
2010-06-13, 02:02:04,VALID,916.7,VALID,0,VALID,93.7528,VALID,0,VALID,21.299,VALID,49,VALID,0.738672,
2010-06-13, 02:03:04,VALID,916.651,VALID,0,VALID,93.7604,VALID,0,VALID,21.299,VALID,49,VALID,0.723437,
2010-06-13, 02:04:04,VALID,916.663,VALID,0,VALID,93.7985,VALID,0,VALID,21.3201,VALID,49,VALID,0.696094,
2010-06-13, 02:05:04,VALID,916.651,VALID,0,VALID,93.8061,VALID,0,VALID,21.3591,VALID,49,VALID,0.753516,
2010-06-13, 02:06:04,VALID,916.631,VALID,0,VALID,93.707,VALID,0,VALID,21.3591,VALID,49,VALID,0.764453,
2010-06-13, 02:07:04,VALID,916.625,VALID,0,VALID,93.6308,VALID,0,VALID,21.3786,VALID,49,VALID,0.785937,
2010-06-13, 02:08:04,VALID,916.642,VALID,0,VALID,93.5164,VALID,0,VALID,21.3981,VALID,49,VALID,0.903906,
2010-06-13, 02:09:04,VALID,916.629,VALID,0,VALID,93.4478,VALID,0,VALID,21.3981,VALID,49,VALID,0.790234,
2010-06-13, 02:10:04,VALID,916.658,VALID,0,VALID,93.4478,VALID,0,VALID,21.3981,VALID,49,VALID,0.766406,
2010-06-13, 02:11:04,VALID,916.688,VALID,0,VALID,93.6232,VALID,0,VALID,21.3786,VALID,49,VALID,0.906641,
2010-06-13, 02:12:04,VALID,916.655,VALID,0,VALID,93.8061,VALID,0,VALID,21.3786,VALID,49,VALID,0.887891,
2010-06-13, 02:13:04,VALID,916.668,VALID,0,VALID,93.9738,VALID,0,VALID,21.3396,VALID,49,VALID,0.960156,
2010-06-13, 02:14:04,VALID,916.603,VALID,0,VALID,94.1492,VALID,0,VALID,21.3201,VALID,49,VALID,1.21055,
2010-06-13, 02:15:04,VALID,916.634,VALID,0,VALID,94.2788,VALID,0,VALID,21.2811,VALID,49,VALID,0.984766,
2010-06-13, 02:16:04,VALID,916.623,VALID,0,VALID,94.4389,VALID,0,VALID,21.2616,VALID,49,VALID,1.03945,
2010-06-13, 02:17:04,VALID,916.565,VALID,0,VALID,94.6066,VALID,0,VALID,21.2421,VALID,153,VALID,0.898047,
2010-06-13, 02:18:04,VALID,916.559,VALID,0,VALID,94.7209,VALID,0,VALID,21.2015,VALID,153,VALID,0.759375,
2010-06-13, 02:19:04,VALID,916.561,VALID,0,VALID,94.8048,VALID,0.107441,VALID,21.2226,VALID,153,VALID,0.746875,
2010-06-13, 02:20:04,VALID,916.552,VALID,0,VALID,94.8124,VALID,0,VALID,21.221,VALID,153,VALID,0.574219,
2010-06-13, 02:21:04,VALID,916.59,VALID,0,VALID,94.7591,VALID,0,VALID,21.221,VALID,153,VALID,1.03398,
2010-06-13, 02:22:04,VALID,916.558,VALID,0,VALID,94.66,VALID,0.107441,VALID,21.2421,VALID,144,VALID,0.997656,
2010-06-13, 02:23:04,VALID,916.558,VALID,0,VALID,94.5304,VALID,0.107441,VALID,21.2616,VALID,144,VALID,0.808203,
2010-06-13, 02:24:04,VALID,916.582,VALID,0,VALID,94.3931,VALID,0,VALID,21.3006,VALID,144,VALID,0.486328,
2010-06-13, 02:25:04,VALID,916.601,VALID,0,VALID,94.1797,VALID,0,VALID,21.299,VALID,144,VALID,0.507031,
2010-06-13, 02:26:04,VALID,916.608,VALID,0,VALID,94.0958,VALID,0,VALID,21.3201,VALID,144,VALID,0.510938,
2010-06-13, 02:27:04,VALID,916.596,VALID,0,VALID,94.012,VALID,0,VALID,21.3396,VALID,144,VALID,0.537891,
2010-06-13, 02:28:04,VALID,916.59,VALID,0,VALID,93.9357,VALID,0,VALID,21.3396,VALID,144,VALID,0.140625,
2010-06-13, 02:29:04,VALID,916.581,VALID,0,VALID,93.9891,VALID,0,VALID,21.3201,VALID,144,VALID,0.387109,
2010-06-13, 02:30:04,VALID,916.56,VALID,0,VALID,94.1263,VALID,0,VALID,21.3006,VALID,144,VALID,0.466016,
2010-06-13, 02:31:04,VALID,916.546,VALID,0,VALID,94.1111,VALID,0,VALID,21.2811,VALID,144,VALID,0.512891,
2010-06-13, 02:32:04,VALID,916.533,VALID,0,VALID,94.1339,VALID,0.107441,VALID,21.2811,VALID,144,VALID,0.410156,
2010-06-13, 02:33:04,VALID,916.556,VALID,0,VALID,94.1492,VALID,0,VALID,21.2405,VALID,144,VALID,0.477734,
2010-06-13, 02:34:04,VALID,916.558,VALID,0,VALID,94.1492,VALID,0,VALID,21.2226,VALID,144,VALID,0.783594,
2010-06-13, 02:35:04,VALID,916.551,VALID,0,VALID,94.3321,VALID,0,VALID,21.2421,VALID,144,VALID,0.909375,
2010-06-13, 02:36:04,VALID,916.523,VALID,0,VALID,94.4694,VALID,0.107441,VALID,21.2811,VALID,144,VALID,0.628906,
2010-06-13, 02:37:04,VALID,916.513,VALID,0,VALID,94.3321,VALID,0,VALID,21.3396,VALID,144,VALID,0.536328,
2010-06-13, 02:38:04,VALID,916.478,VALID,0,VALID,94.2102,VALID,0,VALID,21.3981,VALID,144,VALID,0.0929687,
2010-06-13, 02:39:04,VALID,916.475,VALID,0,VALID,94.0653,VALID,0,VALID,21.4372,VALID,144,VALID,0.3625,
2010-06-13, 02:40:04,VALID,916.461,VALID,0,VALID,93.7985,VALID,0,VALID,21.4567,VALID,144,VALID,0.683594,
2010-06-13, 02:41:04,VALID,916.508,VALID,0,VALID,93.707,VALID,0,VALID,21.4762,VALID,144,VALID,0.907422,
2010-06-13, 02:42:04,VALID,916.519,VALID,0,VALID,93.7223,VALID,0,VALID,21.4567,VALID,144,VALID,0.231641,
2010-06-13, 02:43:04,VALID,916.497,VALID,0,VALID,93.6155,VALID,0,VALID,21.4372,VALID,144,VALID,0.284766,
2010-06-13, 02:44:04,VALID,916.495,VALID,0,VALID,93.6537,VALID,0,VALID,21.3981,VALID,144,VALID,0.428516,
2010-06-13, 02:45:04,VALID,916.48,VALID,0,VALID,93.8976,VALID,0,VALID,21.3591,VALID,144,VALID,0.832422,
2010-06-13, 02:46:04,VALID,916.48,VALID,0,VALID,94.0501,VALID,0,VALID,21.3201,VALID,144,VALID,0.725391,
2010-06-13, 02:47:04,VALID,916.469,VALID,0,VALID,94.3169,VALID,0,VALID,21.3006,VALID,144,VALID,0.875781,
2010-06-13, 02:48:04,VALID,916.433,VALID,0,VALID,94.5151,VALID,0,VALID,21.3006,VALID,144,VALID,0.602734,
2010-06-13, 02:49:04,VALID,916.475,VALID,0,VALID,94.538,VALID,0,VALID,21.3201,VALID,144,VALID,0.264062,
2010-06-13, 02:50:04,VALID,916.443,VALID,0,VALID,94.5151,VALID,0,VALID,21.3201,VALID,144,VALID,0.648828,
2010-06-13, 02:51:04,VALID,916.425,VALID,0,VALID,94.5304,VALID,0,VALID,21.3201,VALID,144,VALID,0.186719,
2010-06-13, 02:52:04,VALID,916.418,VALID,0,VALID,94.4846,VALID,0,VALID,21.3006,VALID,144,VALID,0.342578,
2010-06-13, 02:53:04,VALID,916.399,VALID,0,VALID,94.5761,VALID,0,VALID,21.3006,VALID,144,VALID,0.263672,
2010-06-13, 02:54:04,VALID,916.406,VALID,0,VALID,94.6676,VALID,0,VALID,21.3201,VALID,144,VALID,0.311328,
2010-06-13, 02:55:04,VALID,916.406,VALID,0,VALID,94.6676,VALID,0,VALID,21.3006,VALID,144,VALID,0.271875,
2010-06-13, 02:56:04,VALID,916.414,VALID,0,VALID,94.7133,VALID,0,VALID,21.3201,VALID,144,VALID,0,
2010-06-13, 02:57:04,VALID,916.404,VALID,0,VALID,94.7591,VALID,0,VALID,21.3201,VALID,144,VALID,0,
2010-06-13, 02:58:04,VALID,916.402,VALID,0,VALID,94.6828,VALID,0,VALID,21.3006,VALID,144,VALID,0,
2010-06-13, 02:59:04,VALID,916.376,VALID,0,VALID,94.6447,VALID,0,VALID,21.3201,VALID,144,VALID,0,
2010-06-13, 03:00:04,VALID,916.381,VALID,0,VALID,94.6828,VALID,0,VALID,21.3201,VALID,144,VALID,0.189844,
2010-06-13, 03:01:04,VALID,916.353,VALID,0,VALID,94.5532,VALID,0,VALID,21.3201,VALID,144,VALID,0.216797,
2010-06-13, 03:02:04,VALID,916.339,VALID,0,VALID,94.6676,VALID,0,VALID,21.3396,VALID,144,VALID,0.355859,
2010-06-13, 03:03:04,VALID,916.301,VALID,0,VALID,94.7667,VALID,0,VALID,21.3396,VALID,144,VALID,0.538672,
2010-06-13, 03:04:04,VALID,916.333,VALID,0,VALID,94.6905,VALID,0,VALID,21.3591,VALID,144,VALID,0.283203,
2010-06-13, 03:05:04,VALID,916.352,VALID,0,VALID,94.7133,VALID,0,VALID,21.3786,VALID,144,VALID,0.254687,
2010-06-13, 03:06:04,VALID,916.336,VALID,0,VALID,94.6752,VALID,0,VALID,21.3981,VALID,144,VALID,0.332422,
2010-06-13, 03:07:04,VALID,916.344,VALID,0,VALID,94.5609,VALID,0,VALID,21.3981,VALID,144,VALID,0.336719,
2010-06-13, 03:08:04,VALID,916.356,VALID,0,VALID,94.416,VALID,0,VALID,21.4177,VALID,144,VALID,0.0585938,
2010-06-13, 03:09:04,VALID,916.354,VALID,0,VALID,94.2254,VALID,0,VALID,21.4177,VALID,144,VALID,0.119922,
2010-06-13, 03:10:04,VALID,916.357,VALID,0,VALID,94.1568,VALID,0,VALID,21.4177,VALID,144,VALID,0.627734,
2010-06-13, 03:11:04,VALID,916.354,VALID,0,VALID,94.1797,VALID,0,VALID,21.4567,VALID,144,VALID,0.375,
2010-06-13, 03:12:04,VALID,916.337,VALID,0,VALID,94.1416,VALID,0,VALID,21.4567,VALID,144,VALID,0.437109,
2010-06-13, 03:13:04,VALID,916.317,VALID,0,VALID,94.0958,VALID,0,VALID,21.4762,VALID,144,VALID,0.396094,
2010-06-13, 03:14:04,VALID,916.292,VALID,0,VALID,94.0577,VALID,0.107441,VALID,21.5152,VALID,144,VALID,0.346484,
2010-06-13, 03:15:04,VALID,916.286,VALID,0,VALID,93.951,VALID,0,VALID,21.5347,VALID,144,VALID,0.453125,
2010-06-13, 03:16:04,VALID,916.296,VALID,0,VALID,93.6689,VALID,0,VALID,21.5347,VALID,144,VALID,0.371875,
2010-06-13, 03:17:04,VALID,916.285,VALID,0,VALID,93.5698,VALID,0,VALID,21.5347,VALID,144,VALID,0.475781,
2010-06-13, 03:18:04,VALID,916.282,VALID,0,VALID,93.364,VALID,0,VALID,21.4957,VALID,144,VALID,0.398438,
2010-06-13, 03:19:04,VALID,916.293,VALID,0,VALID,93.3335,VALID,0,VALID,21.4372,VALID,144,VALID,0.665625,
2010-06-13, 03:20:04,VALID,916.298,VALID,0,VALID,93.707,VALID,0,VALID,21.3786,VALID,144,VALID,0.342578,
2010-06-13, 03:21:04,VALID,916.279,VALID,0,VALID,94.1568,VALID,0,VALID,21.3412,VALID,144,VALID,0.511719,
2010-06-13, 03:22:04,VALID,916.31,VALID,0,VALID,94.3017,VALID,0,VALID,21.3022,VALID,144,VALID,0.492188,
2010-06-13, 03:23:04,VALID,916.283,VALID,0,VALID,94.3931,VALID,0,VALID,21.2827,VALID,144,VALID,0.358203,
2010-06-13, 03:24:04,VALID,916.294,VALID,0,VALID,94.4999,VALID,0,VALID,21.2421,VALID,144,VALID,0.339453,
2010-06-13, 03:25:04,VALID,916.269,VALID,0,VALID,94.5456,VALID,0,VALID,21.2226,VALID,144,VALID,0.315234,
2010-06-13, 03:26:04,VALID,916.312,VALID,0,VALID,94.6142,VALID,0,VALID,21.2031,VALID,144,VALID,0.00546875,
2010-06-13, 03:27:04,VALID,916.268,VALID,0,VALID,94.6981,VALID,0,VALID,21.1836,VALID,144,VALID,0,
2010-06-13, 03:28:04,VALID,916.282,VALID,0,VALID,94.8887,VALID,0,VALID,21.1836,VALID,144,VALID,0,
2010-06-13, 03:29:04,VALID,916.295,VALID,0,VALID,94.9954,VALID,0,VALID,21.2031,VALID,144,VALID,0,
2010-06-13, 03:30:04,VALID,916.33,VALID,0,VALID,94.8734,VALID,0,VALID,21.1836,VALID,144,VALID,0.491797,
2010-06-13, 03:31:04,VALID,916.338,VALID,0,VALID,94.82,VALID,0,VALID,21.164,VALID,144,VALID,0.371484,
2010-06-13, 03:32:04,VALID,916.336,VALID,0,VALID,94.8658,VALID,0,VALID,21.1445,VALID,144,VALID,0.323438,
2010-06-13, 03:33:04,VALID,916.316,VALID,0,VALID,94.9115,VALID,0,VALID,21.1657,VALID,144,VALID,0.475781,
2010-06-13, 03:34:04,VALID,916.316,VALID,0,VALID,95.0488,VALID,0,VALID,21.1445,VALID,144,VALID,0.59375,
2010-06-13, 03:35:04,VALID,916.312,VALID,0,VALID,95.2546,VALID,0,VALID,21.164,VALID,144,VALID,0.603125,
2010-06-13, 03:36:04,VALID,916.279,VALID,0,VALID,95.4375,VALID,0,VALID,21.1852,VALID,144,VALID,0.534766,
2010-06-13, 03:37:04,VALID,916.282,VALID,0,VALID,95.5519,VALID,0,VALID,21.2031,VALID,144,VALID,0.367188,
2010-06-13, 03:38:04,VALID,916.256,VALID,0,VALID,95.6129,VALID,0,VALID,21.2437,VALID,144,VALID,0.234766,
2010-06-13, 03:39:04,VALID,916.251,VALID,0,VALID,95.6357,VALID,0,VALID,21.2811,VALID,144,VALID,0.199219,
2010-06-13, 03:40:04,VALID,916.25,VALID,0,VALID,95.4909,VALID,0,VALID,21.3201,VALID,144,VALID,0.438281,
2010-06-13, 03:41:04,VALID,916.249,VALID,0,VALID,95.2698,VALID,0,VALID,21.3591,VALID,144,VALID,0.403516,
2010-06-13, 03:42:04,VALID,916.261,VALID,0,VALID,95.1097,VALID,0,VALID,21.3981,VALID,144,VALID,0,
2010-06-13, 03:43:04,VALID,916.266,VALID,0,VALID,94.9039,VALID,0,VALID,21.3981,VALID,144,VALID,0,